TimePDT,TemperatureF,Dew PointF,Humidity,Sea Level PressureIn,VisibilityMPH,Wind Direction,Wind SpeedMPH,Gust SpeedMPH,PrecipitationIn,Events,Conditions,WindDirDegrees,DateUTC
12:24 AM,32.0,28.4,87,29.65,0.5,South,8.1,34.5,0.02,Fog-Snow,Snow,180,2013-04-08 07:24:00
12:29 AM,33.8,28.4,81,29.65,1.0,South,16.1,23.0,0.02,Snow,Light Snow,170,2013-04-08 07:29:00
12:33 AM,33.8,26.6,75,29.65,3.0,South,10.4,23.0,0.02,Snow,Light Snow,180,2013-04-08 07:33:00
12:41 AM,33.8,26.6,75,29.65,9.0,NE,11.5,-,0.02,,Overcast,50,2013-04-08 07:41:00
12:48 AM,33.8,26.6,75,29.65,10.0,NE,11.5,-,0.02,,Overcast,40,2013-04-08 07:48:00
12:53 AM,33.1,27.0,78,29.58,3.0,Variable,6.9,-,0.02,Snow,Light Snow,0,2013-04-08 07:53:00
12:59 AM,33.8,26.6,75,29.66,1.8,SSE,6.9,-,0.00,Snow,Light Snow,150,2013-04-08 07:59:00
1:09 AM,33.8,26.6,75,29.67,0.8,South,16.1,23.0,0.00,Snow,Light Snow,180,2013-04-08 08:09:00
1:14 AM,32.0,26.6,80,29.66,0.5,South,16.1,24.2,0.00,Snow,Snow,170,2013-04-08 08:14:00
1:42 AM,30.2,28.4,93,29.66,0.2,Calm,Calm,-,0.03,Fog-Snow,Heavy Snow,0,2013-04-08 08:42:00
1:53 AM,30.9,28.0,89,29.58,0.2,South,5.8,-,0.06,Fog-Snow,Heavy Snow,180,2013-04-08 08:53:00
2:19 AM,30.2,28.4,93,29.64,1.0,South,5.8,-,0.02,Snow,Light Snow,190,2013-04-08 09:19:00
2:23 AM,30.2,26.6,86,29.64,2.0,Calm,Calm,-,0.02,Snow,Light Snow,0,2013-04-08 09:23:00
2:26 AM,30.2,28.4,93,29.64,3.0,Calm,Calm,-,0.02,Snow,Light Snow,0,2013-04-08 09:26:00
2:35 AM,30.2,26.6,86,29.64,7.0,Calm,Calm,-,0.02,Snow,Light Snow,0,2013-04-08 09:35:00
2:53 AM,30.9,26.1,82,29.56,3.0,South,3.5,-,0.02,Snow,Light Snow,190,2013-04-08 09:53:00
3:03 AM,30.2,26.6,86,29.63,2.5,Calm,Calm,-,0.00,Snow,Light Snow,0,2013-04-08 10:03:00
3:12 AM,30.2,26.6,86,29.63,4.0,Calm,Calm,-,0.00,Snow,Light Snow,0,2013-04-08 10:12:00
3:28 AM,30.2,26.6,86,29.63,2.5,Calm,Calm,-,0.01,Snow,Light Snow,0,2013-04-08 10:28:00
3:39 AM,30.2,26.6,86,29.63,1.5,SSE,3.5,-,0.01,Snow,Light Snow,160,2013-04-08 10:39:00
3:50 AM,28.4,24.8,86,29.63,3.0,South,3.5,-,0.01,Snow,Light Snow,170,2013-04-08 10:50:00
3:51 AM,28.9,25.0,85,29.57,3.0,South,3.5,-,0.01,Snow,Light Snow,180,2013-04-08 10:51:00
3:55 AM,28.4,24.8,86,29.63,5.0,SSW,3.5,-,0.00,Snow,Light Snow,200,2013-04-08 10:55:00
4:53 AM,30.0,26.1,85,29.58,10.0,Calm,Calm,-,0.00,,Overcast,0,2013-04-08 11:53:00
5:04 AM,30.2,26.6,86,29.64,6.0,Calm,Calm,-,0.00,Snow,Light Snow,0,2013-04-08 12:04:00
5:10 AM,30.2,26.6,86,29.64,2.5,Calm,Calm,-,0.00,Snow,Light Snow,0,2013-04-08 12:10:00
5:15 AM,30.2,26.6,86,29.64,3.0,Calm,Calm,-,0.00,Snow,Light Snow,0,2013-04-08 12:15:00
5:20 AM,30.2,26.6,86,29.64,6.0,Calm,Calm,-,0.00,Snow,Light Snow,0,2013-04-08 12:20:00
5:29 AM,30.2,26.6,86,29.64,6.0,Calm,Calm,-,0.00,Snow,Light Snow,0,2013-04-08 12:29:00
5:42 AM,30.2,26.6,86,29.64,2.5,Calm,Calm,-,0.00,Snow,Light Snow,0,2013-04-08 12:42:00
5:49 AM,30.2,26.6,86,29.65,1.5,NNE,9.2,-,0.00,Snow,Light Snow,30,2013-04-08 12:49:00
5:53 AM,30.9,26.1,82,29.59,1.0,Calm,Calm,-,0.01,Snow,Light Snow,0,2013-04-08 12:53:00
6:05 AM,30.2,26.6,86,29.65,4.0,NNE,4.6,-,0.00,Snow,Light Snow,30,2013-04-08 13:05:00
6:12 AM,30.2,24.8,80,29.65,9.0,Variable,3.5,-,0.00,,Overcast,0,2013-04-08 13:12:00
6:43 AM,32.0,24.8,75,29.67,2.5,Calm,Calm,-,0.00,Snow,Light Snow,0,2013-04-08 13:43:00
6:53 AM,30.9,25.0,79,29.63,1.8,NNE,3.5,-,0.00,Snow,Light Snow,30,2013-04-08 13:53:00
6:58 AM,32.0,24.8,75,29.68,3.0,North,3.5,-,0.00,Snow,Light Snow,10,2013-04-08 13:58:00
7:06 AM,32.0,24.8,75,29.68,7.0,Calm,Calm,-,0.00,Snow,Light Snow,0,2013-04-08 14:06:00
7:25 AM,32.0,24.8,75,29.70,10.0,Variable,5.8,-,0.00,,Overcast,0,2013-04-08 14:25:00
7:53 AM,30.9,24.1,76,29.67,2.5,NNE,9.2,-,0.00,Snow,Light Snow,20,2013-04-08 14:53:00
8:12 AM,30.2,24.8,80,29.72,5.0,Variable,5.8,-,0.00,Snow,Light Snow,0,2013-04-08 15:12:00
8:30 AM,30.2,21.2,69,29.74,2.5,North,9.2,18.4,0.00,Snow,Light Snow,10,2013-04-08 15:30:00
8:39 AM,30.2,21.2,69,29.74,6.0,North,8.1,23.0,0.01,Snow,Light Snow,10,2013-04-08 15:39:00
8:47 AM,30.2,19.4,64,29.75,2.5,NNE,12.7,24.2,0.01,Snow,Light Snow,20,2013-04-08 15:47:00
8:53 AM,30.9,19.9,64,29.72,1.8,NNE,12.7,27.6,0.01,Snow,Light Snow,20,2013-04-08 15:53:00
8:57 AM,30.2,19.4,64,29.75,3.0,North,12.7,27.6,0.00,Snow,Light Snow,10,2013-04-08 15:57:00
9:08 AM,30.2,19.4,64,29.76,7.0,North,8.1,20.7,0.00,,Overcast,10,2013-04-08 16:08:00
9:43 AM,30.2,19.4,64,29.79,2.5,NNE,10.4,18.4,0.00,Snow,Light Snow,20,2013-04-08 16:43:00
9:49 AM,30.2,21.2,69,29.80,1.8,NNE,9.2,18.4,0.00,Snow,Light Snow,20,2013-04-08 16:49:00
9:53 AM,30.0,21.0,69,29.78,1.5,Variable,6.9,18.4,0.00,Snow,Light Snow,0,2013-04-08 16:53:00
10:16 AM,30.2,21.2,69,29.82,2.5,Variable,4.6,-,0.00,Snow,Light Snow,0,2013-04-08 17:16:00
10:23 AM,30.2,21.2,69,29.82,4.0,Variable,5.8,-,0.00,Snow,Light Snow,0,2013-04-08 17:23:00
10:45 AM,32.0,21.2,64,29.83,6.0,Variable,6.9,-,0.00,Snow,Light Snow,0,2013-04-08 17:45:00
10:53 AM,32.0,19.9,61,29.80,9.0,Variable,5.8,18.4,0.00,Snow,Light Snow,0,2013-04-08 17:53:00
11:53 AM,34.0,19.9,56,29.83,10.0,NNE,9.2,-,N/A,,Overcast,20,2013-04-08 18:53:00
12:53 PM,34.0,21.0,59,29.84,10.0,East,8.1,-,N/A,,Overcast,100,2013-04-08 19:53:00
1:53 PM,35.1,19.0,52,29.87,9.0,Calm,Calm,-,0.00,,Overcast,0,2013-04-08 20:53:00
2:53 PM,36.0,19.9,52,29.86,8.0,Variable,3.5,-,0.00,Snow,Light Snow,0,2013-04-08 21:53:00
3:53 PM,39.0,18.0,43,29.86,10.0,NNE,10.4,-,0.00,,Overcast,30,2013-04-08 22:53:00
4:53 PM,39.0,16.0,39,29.87,10.0,NNE,8.1,-,N/A,,Overcast,20,2013-04-08 23:53:00
5:53 PM,37.9,18.0,45,29.88,10.0,North,6.9,-,N/A,,Partly Cloudy,10,2013-04-09 00:53:00
6:53 PM,37.0,19.0,48,29.90,10.0,North,6.9,-,N/A,,Mostly Cloudy,10,2013-04-09 01:53:00
7:53 PM,35.1,17.1,48,29.93,10.0,NE,9.2,-,N/A,,Overcast,50,2013-04-09 02:53:00
8:53 PM,34.0,18.0,52,29.96,10.0,NNE,12.7,18.4,N/A,,Mostly Cloudy,30,2013-04-09 03:53:00
9:53 PM,33.1,17.1,52,29.99,10.0,NNE,12.7,18.4,N/A,,Scattered Clouds,20,2013-04-09 04:53:00
10:53 PM,34.0,17.1,50,30.00,10.0,NNE,10.4,17.3,N/A,,Mostly Cloudy,30,2013-04-09 05:53:00
11:53 PM,33.1,16.0,50,30.00,10.0,NE,17.3,20.7,N/A,,Scattered Clouds,40,2013-04-09 06:53:00